TEVEL2-6

Last updated on Mon Sep 15 2025 00:03:10 GMT+0000 (Coordinated Universal Time)

1 63215U 25052F 25256.95430347 .00010428 00000+0 44930-3 0 9993 2 63215 97.4172 149.6597 0004418 43.3580 316.8004 15.22755494 27904
UTC large
Height (km)
Speed (km/s)
/
Latitude / Longitude
Inclination (degrees)
Orbital Period (minutes)
Azimuth
Elevation
Range (km)
Doppler Factor

Next 0 passes for location: London (51.5072 / 0.1276)

Sorry there are no passes over London.